Time,TemperatureF,DewpointF,PressureIn,WindDirection,WindDirectionDegrees,WindSpeedMPH,WindSpeedGustMPH,Humidity,HourlyPrecipIn,Conditions,Clouds,dailyrainin,SolarRadiationWatts/m^2,SoftwareType,DateUTC
2013-09-29 00:00:00,52.0,46.0,29.84,ENE,64,6.3,10.4,80,0.00,CLR,,0.00,0.0,WeatherDisplay:10.37,2013-09-28 22:00:00,
2013-09-29 00:01:00,52.0,46.0,29.84,ENE,63,4.4,10.4,80,0.00,CLR,,0.00,0.0,WeatherDisplay:10.37,2013-09-28 22:01:00,
2013-09-29 00:02:00,52.0,46.0,29.84,ENE,62,7.2,7.2,80,0.00,CLR,,0.00,0.0,WeatherDisplay:10.37,2013-09-28 22:02:00,
2013-09-29 00:04:00,52.1,46.1,29.84,ENE,67,6.7,12.7,80,0.00,CLR,,0.00,0.0,WeatherDisplay:10.37,2013-09-28 22:04:00,
2013-09-29 00:07:00,51.9,45.9,29.84,ENE,61,5.4,5.8,80,0.00,CLR,,0.00,0.0,WeatherDisplay:10.37,2013-09-28 22:07:00,
2013-09-29 00:08:00,51.9,45.9,29.84,ENE,63,5.1,8.1,80,0.00,CLR,,0.00,0.0,WeatherDisplay:10.37,2013-09-28 22:08:00,
2013-09-29 00:09:00,51.9,45.9,29.84,NE,50,5.8,8.1,80,0.00,CLR,,0.00,0.0,WeatherDisplay:10.37,2013-09-28 22:09:00,
2013-09-29 00:10:00,52.0,46.0,29.84,ENE,64,6.3,10.4,80,0.00,CLR,,0.00,0.0,WeatherDisplay:10.37,2013-09-28 22:10:00,
2013-09-29 00:11:00,51.8,45.8,29.84,ENE,76,5.8,12.0,80,0.00,CLR,,0.00,0.0,WeatherDisplay:10.37,2013-09-28 22:11:00,
2013-09-29 00:12:00,51.8,45.8,29.84,ENE,67,5.5,11.5,80,0.00,CLR,,0.00,0.0,WeatherDisplay:10.37,2013-09-28 22:12:00,
2013-09-29 00:15:00,51.9,45.9,29.84,NE,49,6.1,12.7,80,0.00,CLR,,0.00,0.0,WeatherDisplay:10.37,2013-09-28 22:15:00,
2013-09-29 00:20:00,51.8,45.8,29.84,ENE,63,5.6,8.1,80,0.00,CLR,,0.00,0.0,WeatherDisplay:10.37,2013-09-28 22:20:00,
2013-09-29 00:25:00,51.7,45.7,29.84,ENE,58,5.8,8.1,80,0.00,CLR,,0.00,0.0,WeatherDisplay:10.37,2013-09-28 22:25:00,
2013-09-29 00:30:00,51.6,45.9,29.84,ENE,65,5.9,11.5,81,0.00,CLR,,0.00,0.0,WeatherDisplay:10.37,2013-09-28 22:30:00,
2013-09-29 00:35:00,51.6,45.9,29.84,ENE,65,6.9,11.5,81,0.00,CLR,,0.00,0.0,WeatherDisplay:10.37,2013-09-28 22:35:00,
2013-09-29 00:40:00,51.5,45.8,29.84,ENE,65,4.7,10.0,81,0.00,CLR,,0.00,0.0,WeatherDisplay:10.37,2013-09-28 22:40:00,
2013-09-29 00:45:00,51.4,45.7,29.84,NE,53,5.4,8.1,81,0.00,CLR,,0.00,0.0,WeatherDisplay:10.37,2013-09-28 22:45:00,
2013-09-29 00:50:00,51.3,45.6,29.84,NE,53,7.2,11.5,81,0.00,CLR,,0.00,0.0,WeatherDisplay:10.37,2013-09-28 22:50:00,
2013-09-29 00:55:00,51.2,45.5,29.84,ENE,63,7.1,10.4,81,0.00,CLR,,0.00,0.0,WeatherDisplay:10.37,2013-09-28 22:55:00,
2013-09-29 01:00:00,51.1,45.8,29.84,ENE,65,8.0,8.1,82,0.00,CLR,,0.00,0.0,WeatherDisplay:10.37,2013-09-28 23:00:00,
2013-09-29 01:05:00,51.0,45.7,29.84,ENE,61,5.9,11.5,82,0.00,CLR,,0.00,0.0,WeatherDisplay:10.37,2013-09-28 23:05:00,
2013-09-29 01:10:00,50.9,45.6,29.84,NE,50,8.6,12.7,82,0.00,CLR,,0.00,0.0,WeatherDisplay:10.37,2013-09-28 23:10:00,
2013-09-29 01:15:00,50.9,45.6,29.84,ENE,69,6.4,11.5,82,0.00,CLR,,0.00,0.0,WeatherDisplay:10.37,2013-09-28 23:15:00,
2013-09-29 01:20:00,50.8,45.5,29.83,ENE,71,5.7,11.5,82,0.00,CLR,,0.00,0.0,WeatherDisplay:10.37,2013-09-28 23:20:00,
2013-09-29 01:25:00,50.8,45.5,29.83,ENE,65,7.9,10.4,82,0.00,CLR,,0.00,0.0,WeatherDisplay:10.37,2013-09-28 23:25:00,
2013-09-29 01:30:00,50.7,45.4,29.83,ENE,76,5.9,10.4,82,0.00,CLR,,0.00,0.0,WeatherDisplay:10.37,2013-09-28 23:30:00,
2013-09-29 01:35:00,50.7,45.4,29.83,ENE,65,3.7,8.1,82,0.00,CLR,,0.00,0.0,WeatherDisplay:10.37,2013-09-28 23:35:00,
2013-09-29 01:40:00,50.7,45.4,29.83,ENE,77,5.2,11.5,82,0.00,CLR,,0.00,0.0,WeatherDisplay:10.37,2013-09-28 23:40:00,
2013-09-29 01:45:00,50.6,45.3,29.83,ENE,64,6.8,12.7,82,0.00,CLR,,0.00,0.0,WeatherDisplay:10.37,2013-09-28 23:45:00,
2013-09-29 01:50:00,50.6,45.3,29.83,East,81,5.9,8.1,82,0.00,CLR,,0.00,0.0,WeatherDisplay:10.37,2013-09-28 23:50:00,
2013-09-29 01:55:00,50.5,45.2,29.83,ENE,69,1.7,8.0,82,0.00,CLR,,0.00,0.0,WeatherDisplay:10.37,2013-09-28 23:55:00,
2013-09-29 02:00:00,50.5,45.5,29.83,ENE,75,5.1,11.5,83,0.00,CLR,,0.00,0.0,WeatherDisplay:10.37,2013-09-29 00:00:00,
2013-09-29 02:01:00,50.4,45.4,29.83,ENE,73,3.1,6.9,83,0.00,CLR,,0.00,0.0,WeatherDisplay:10.37,2013-09-29 00:01:00,
2013-09-29 02:02:00,50.4,45.4,29.83,NE,55,4.2,10.4,83,0.00,CLR,,0.00,0.0,WeatherDisplay:10.37,2013-09-29 00:02:00,
2013-09-29 02:03:00,50.4,45.4,29.83,ENE,69,6.0,8.1,83,0.00,CLR,,0.00,0.0,WeatherDisplay:10.37,2013-09-29 00:03:00,
2013-09-29 02:04:00,50.3,45.3,29.83,ENE,64,6.5,10.4,83,0.00,CLR,,0.00,0.0,WeatherDisplay:10.37,2013-09-29 00:04:00,
2013-09-29 02:05:00,50.4,45.4,29.83,ENE,73,3.9,8.1,83,0.00,CLR,,0.00,0.0,WeatherDisplay:10.37,2013-09-29 00:05:00,
2013-09-29 02:11:00,50.4,45.4,29.83,ENE,73,4.5,8.1,83,0.00,CLR,,0.00,0.0,WeatherDisplay:10.37,2013-09-29 00:11:00,
2013-09-29 02:16:00,50.3,45.3,29.83,ENE,67,2.8,6.0,83,0.00,CLR,,0.00,0.0,WeatherDisplay:10.37,2013-09-29 00:16:00,
2013-09-29 02:21:00,50.4,45.4,29.83,ENE,61,6.1,10.4,83,0.00,CLR,,0.00,0.0,WeatherDisplay:10.37,2013-09-29 00:21:00,
2013-09-29 02:26:00,50.4,45.4,29.82,ENE,63,4.8,6.9,83,0.00,CLR,,0.00,0.0,WeatherDisplay:10.37,2013-09-29 00:26:00,
2013-09-29 02:31:00,50.4,45.4,29.83,ENE,67,3.5,6.9,83,0.00,CLR,,0.00,0.0,WeatherDisplay:10.37,2013-09-29 00:31:00,
2013-09-29 02:37:00,50.3,45.0,29.82,ENE,72,5.7,11.5,82,0.00,CLR,,0.00,0.0,WeatherDisplay:10.37,2013-09-29 00:37:00,
2013-09-29 02:42:00,50.3,45.0,29.82,ENE,78,3.8,10.4,82,0.00,CLR,,0.00,0.0,WeatherDisplay:10.37,2013-09-29 00:42:00,
2013-09-29 02:47:00,50.3,45.0,29.82,ENE,63,5.5,10.4,82,0.00,CLR,,0.00,0.0,WeatherDisplay:10.37,2013-09-29 00:47:00,
2013-09-29 02:52:00,50.2,44.9,29.82,ENE,64,5.4,10.0,82,0.00,CLR,,0.00,0.0,WeatherDisplay:10.37,2013-09-29 00:52:00,
2013-09-29 02:57:00,50.2,44.9,29.82,ENE,70,4.4,8.1,82,0.00,CLR,,0.00,0.0,WeatherDisplay:10.37,2013-09-29 00:57:00,
2013-09-29 03:02:00,50.2,44.9,29.82,ENE,69,7.5,8.1,82,0.00,CLR,,0.00,0.0,WeatherDisplay:10.37,2013-09-29 01:02:00,
2013-09-29 03:07:00,50.1,44.8,29.82,ENE,70,4.4,9.2,82,0.00,CLR,,0.00,0.0,WeatherDisplay:10.37,2013-09-29 01:07:00,
2013-09-29 03:12:00,50.1,44.8,29.82,ENE,63,5.7,8.1,82,0.00,CLR,,0.00,0.0,WeatherDisplay:10.37,2013-09-29 01:12:00,
2013-09-29 03:17:00,50.0,44.7,29.82,ENE,71,4.6,8.1,82,0.00,CLR,,0.00,0.0,WeatherDisplay:10.37,2013-09-29 01:17:00,
2013-09-29 03:22:00,50.0,44.7,29.81,ENE,68,4.3,6.9,82,0.00,CLR,,0.00,0.0,WeatherDisplay:10.37,2013-09-29 01:22:00,
2013-09-29 03:27:00,49.9,44.6,29.81,ENE,70,4.8,7.0,82,0.00,CLR,,0.00,0.0,WeatherDisplay:10.37,2013-09-29 01:27:00,
2013-09-29 03:32:00,49.8,44.8,29.81,ENE,63,6.2,8.1,83,0.00,CLR,,0.00,0.0,WeatherDisplay:10.37,2013-09-29 01:32:00,
2013-09-29 03:37:00,49.8,44.8,29.81,East,81,3.4,6.0,83,0.00,CLR,,0.00,0.0,WeatherDisplay:10.37,2013-09-29 01:37:00,
2013-09-29 03:42:00,49.8,44.8,29.81,ENE,61,6.5,11.5,83,0.00,CLR,,0.00,0.0,WeatherDisplay:10.37,2013-09-29 01:42:00,
2013-09-29 03:47:00,49.7,44.4,29.81,East,84,4.7,11.0,82,0.00,CLR,,0.00,0.0,WeatherDisplay:10.37,2013-09-29 01:47:00,
2013-09-29 03:52:00,49.6,44.6,29.80,ENE,75,5.9,10.4,83,0.00,CLR,,0.00,0.0,WeatherDisplay:10.37,2013-09-29 01:52:00,
2013-09-29 03:57:00,49.5,44.5,29.80,ENE,71,7.7,11.5,83,0.00,CLR,,0.00,0.0,WeatherDisplay:10.37,2013-09-29 01:57:00,
2013-09-29 04:02:00,49.4,44.4,29.80,NE,52,6.8,8.1,83,0.00,CLR,,0.00,0.0,WeatherDisplay:10.37,2013-09-29 02:02:00,
2013-09-29 04:07:00,49.4,44.4,29.80,NE,55,7.9,12.7,83,0.00,CLR,,0.00,0.0,WeatherDisplay:10.37,2013-09-29 02:07:00,
2013-09-29 04:12:00,49.4,44.4,29.80,ENE,68,7.2,11.5,83,0.00,CLR,,0.00,0.0,WeatherDisplay:10.37,2013-09-29 02:12:00,
2013-09-29 04:17:00,49.4,44.4,29.80,ENE,65,5.2,11.0,83,0.00,CLR,,0.00,0.0,WeatherDisplay:10.37,2013-09-29 02:17:00,
2013-09-29 04:22:00,49.3,44.3,29.80,East,84,4.6,10.0,83,0.00,CLR,,0.00,0.0,WeatherDisplay:10.37,2013-09-29 02:22:00,
2013-09-29 04:27:00,49.3,44.3,29.80,ENE,67,4.5,8.1,83,0.00,CLR,,0.00,0.0,WeatherDisplay:10.37,2013-09-29 02:27:00,
2013-09-29 04:32:00,49.2,44.2,29.80,ENE,72,5.5,7.0,83,0.00,CLR,,0.00,0.0,WeatherDisplay:10.37,2013-09-29 02:32:00,
2013-09-29 04:37:00,49.2,44.2,29.80,NE,55,3.1,11.5,83,0.00,CLR,,0.00,0.0,WeatherDisplay:10.37,2013-09-29 02:37:00,
2013-09-29 04:42:00,49.1,44.1,29.80,East,92,3.2,9.0,83,0.00,CLR,,0.00,0.0,WeatherDisplay:10.37,2013-09-29 02:42:00,
2013-09-29 04:47:00,49.0,44.0,29.80,East,80,7.9,12.7,83,0.00,CLR,,0.00,0.0,WeatherDisplay:10.37,2013-09-29 02:47:00,
2013-09-29 04:52:00,49.0,44.0,29.80,East,79,4.7,8.1,83,0.00,CLR,,0.00,0.0,WeatherDisplay:10.37,2013-09-29 02:52:00,
2013-09-29 04:57:00,48.9,43.9,29.80,ENE,76,7.2,12.7,83,0.00,CLR,,0.00,0.0,WeatherDisplay:10.37,2013-09-29 02:57:00,
2013-09-29 05:00:00,48.9,43.9,29.79,ENE,73,6.1,11.5,83,0.00,CLR,,0.00,0.0,WeatherDisplay:10.37,2013-09-29 03:00:00,
2013-09-29 05:01:00,48.9,43.9,29.79,ENE,74,5.9,11.5,83,0.00,CLR,,0.00,0.0,WeatherDisplay:10.37,2013-09-29 03:01:00,
2013-09-29 05:02:00,48.9,44.3,29.79,ENE,74,6.1,10.4,84,0.00,CLR,,0.00,0.0,WeatherDisplay:10.37,2013-09-29 03:02:00,
2013-09-29 05:03:00,48.9,43.9,29.80,ENE,61,3.8,5.8,83,0.00,CLR,,0.00,0.0,WeatherDisplay:10.37,2013-09-29 03:03:00,
2013-09-29 05:04:00,48.8,44.2,29.79,ENE,60,5.4,12.0,84,0.00,CLR,,0.00,0.0,WeatherDisplay:10.37,2013-09-29 03:04:00,
2013-09-29 05:05:00,48.8,44.2,29.79,ENE,67,7.8,12.7,84,0.00,CLR,,0.00,0.0,WeatherDisplay:10.37,2013-09-29 03:05:00,
2013-09-29 05:08:00,48.9,43.9,29.79,ENE,72,3.8,6.0,83,0.00,CLR,,0.00,0.0,WeatherDisplay:10.37,2013-09-29 03:08:00,
2013-09-29 05:13:00,48.8,44.2,29.79,ENE,71,5.2,11.5,84,0.00,CLR,,0.00,0.0,WeatherDisplay:10.37,2013-09-29 03:13:00,
2013-09-29 05:18:00,48.8,44.2,29.79,ENE,60,8.5,12.7,84,0.00,CLR,,0.00,0.0,WeatherDisplay:10.37,2013-09-29 03:18:00,
2013-09-29 05:23:00,48.8,43.8,29.79,ENE,69,4.7,5.8,83,0.00,CLR,,0.00,0.0,WeatherDisplay:10.37,2013-09-29 03:23:00,
2013-09-29 05:28:00,48.8,43.8,29.79,ENE,65,7.7,11.5,83,0.00,CLR,,0.00,0.0,WeatherDisplay:10.37,2013-09-29 03:28:00,
2013-09-29 05:33:00,48.9,43.9,29.79,ENE,59,7.3,14.0,83,0.00,CLR,,0.00,0.0,WeatherDisplay:10.37,2013-09-29 03:33:00,
2013-09-29 05:38:00,48.9,43.9,29.79,ENE,67,4.5,8.1,83,0.00,CLR,,0.00,0.0,WeatherDisplay:10.37,2013-09-29 03:38:00,
2013-09-29 05:42:00,48.8,43.8,29.78,NE,56,6.8,10.4,83,0.00,CLR,,0.00,0.0,WeatherDisplay:10.37,2013-09-29 03:42:00,
2013-09-29 05:43:00,48.8,43.8,29.78,East,82,5.1,7.0,83,0.00,CLR,,0.00,0.0,WeatherDisplay:10.37,2013-09-29 03:43:00,
2013-09-29 05:44:00,48.7,43.7,29.78,ENE,76,6.2,10.4,83,0.00,CLR,,0.00,0.0,WeatherDisplay:10.37,2013-09-29 03:44:00,
2013-09-29 05:45:00,48.7,43.7,29.78,ENE,76,6.8,11.5,83,0.00,CLR,,0.00,0.0,WeatherDisplay:10.37,2013-09-29 03:45:00,
2013-09-29 05:46:00,48.7,43.7,29.78,ENE,70,5.4,11.0,83,0.00,CLR,,0.00,0.0,WeatherDisplay:10.37,2013-09-29 03:46:00,
2013-09-29 05:47:00,48.7,43.7,29.78,ENE,76,6.1,11.5,83,0.00,CLR,,0.00,0.0,WeatherDisplay:10.37,2013-09-29 03:47:00,
2013-09-29 05:48:00,48.8,43.8,29.78,East,99,6.0,11.0,83,0.00,CLR,,0.00,0.0,WeatherDisplay:10.37,2013-09-29 03:48:00,
2013-09-29 05:50:00,48.7,43.7,29.78,ENE,63,6.1,11.5,83,0.00,CLR,,0.00,0.0,WeatherDisplay:10.37,2013-09-29 03:50:00,
2013-09-29 05:51:00,48.7,43.7,29.78,ENE,67,5.6,8.1,83,0.00,CLR,,0.00,0.0,WeatherDisplay:10.37,2013-09-29 03:51:00,
2013-09-29 05:52:00,48.7,43.7,29.78,East,80,6.0,10.4,83,0.00,CLR,,0.00,0.0,WeatherDisplay:10.37,2013-09-29 03:52:00,
2013-09-29 05:53:00,48.7,43.7,29.78,ENE,67,7.8,10.4,83,0.00,CLR,,0.00,0.0,WeatherDisplay:10.37,2013-09-29 03:53:00,
2013-09-29 05:54:00,48.7,43.7,29.78,East,86,3.6,8.1,83,0.00,CLR,,0.00,0.0,WeatherDisplay:10.37,2013-09-29 03:54:00,
2013-09-29 05:55:00,48.7,43.7,29.78,ENE,72,4.9,10.4,83,0.00,CLR,,0.00,0.0,WeatherDisplay:10.37,2013-09-29 03:55:00,
2013-09-29 05:56:00,48.7,43.7,29.78,East,87,6.9,11.5,83,0.00,CLR,,0.00,0.0,WeatherDisplay:10.37,2013-09-29 03:56:00,
2013-09-29 05:57:00,48.7,43.7,29.78,East,81,10.0,13.8,83,0.00,CLR,,0.00,0.0,WeatherDisplay:10.37,2013-09-29 03:57:00,
2013-09-29 05:58:00,48.7,43.7,29.78,ENE,70,6.9,11.5,83,0.00,CLR,,0.00,0.0,WeatherDisplay:10.37,2013-09-29 03:58:00,
2013-09-29 06:05:00,48.7,43.7,29.78,ENE,63,5.2,10.4,83,0.00,CLR,,0.00,0.0,WeatherDisplay:10.37,2013-09-29 04:05:00,
2013-09-29 06:10:00,48.6,43.7,29.78,ENE,72,7.2,11.5,83,0.00,CLR,,0.00,0.0,WeatherDisplay:10.37,2013-09-29 04:10:00,
2013-09-29 06:15:00,48.7,43.7,29.78,ENE,63,3.7,10.4,83,0.00,CLR,,0.00,0.0,WeatherDisplay:10.37,2013-09-29 04:15:00,
2013-09-29 06:20:00,48.6,43.7,29.78,ENE,72,6.1,10.4,83,0.00,CLR,,0.00,0.0,WeatherDisplay:10.37,2013-09-29 04:20:00,
2013-09-29 06:25:00,48.6,43.7,29.78,NE,54,5.0,12.7,83,0.00,CLR,,0.00,0.0,WeatherDisplay:10.37,2013-09-29 04:25:00,
2013-09-29 06:30:00,48.5,43.6,29.78,ENE,63,5.3,11.5,83,0.00,CLR,,0.00,0.0,WeatherDisplay:10.37,2013-09-29 04:30:00,
2013-09-29 06:35:00,48.5,43.6,29.78,ENE,63,8.9,12.7,83,0.00,CLR,,0.00,0.0,WeatherDisplay:10.37,2013-09-29 04:35:00,
2013-09-29 06:40:00,48.5,43.6,29.78,East,83,5.0,8.1,83,0.00,CLR,,0.00,0.0,WeatherDisplay:10.37,2013-09-29 04:40:00,
2013-09-29 06:45:00,48.5,43.6,29.78,East,82,5.6,8.1,83,0.00,CLR,,0.00,0.0,WeatherDisplay:10.37,2013-09-29 04:45:00,
2013-09-29 06:50:00,48.4,43.5,29.77,ENE,66,6.8,11.5,83,0.00,CLR,,0.00,0.0,WeatherDisplay:10.37,2013-09-29 04:50:00,
2013-09-29 06:55:00,48.3,43.4,29.77,ENE,63,4.2,5.8,83,0.00,CLR,,0.00,0.0,WeatherDisplay:10.37,2013-09-29 04:55:00,
2013-09-29 07:00:00,48.1,43.5,29.77,ENE,63,8.2,11.5,84,0.00,CLR,,0.00,0.0,WeatherDisplay:10.37,2013-09-29 05:00:00,
2013-09-29 07:05:00,48.1,43.5,29.77,ENE,69,4.3,5.8,84,0.00,CLR,,0.00,0.0,WeatherDisplay:10.37,2013-09-29 05:05:00,
2013-09-29 07:10:00,48.0,43.4,29.77,East,86,6.4,12.7,84,0.00,CLR,,0.00,0.0,WeatherDisplay:10.37,2013-09-29 05:10:00,
2013-09-29 07:15:00,47.9,43.3,29.77,East,84,5.1,11.5,84,0.00,CLR,,0.00,0.0,WeatherDisplay:10.37,2013-09-29 05:15:00,
2013-09-29 07:20:00,47.9,43.3,29.77,ENE,59,3.0,8.1,84,0.00,CLR,,0.00,0.0,WeatherDisplay:10.37,2013-09-29 05:20:00,
2013-09-29 07:25:00,47.9,43.3,29.77,NNE,27,6.2,11.5,84,0.00,CLR,,0.00,0.0,WeatherDisplay:10.37,2013-09-29 05:25:00,
2013-09-29 07:30:00,47.8,43.2,29.77,ENE,72,5.7,12.7,84,0.00,CLR,,0.00,0.0,WeatherDisplay:10.37,2013-09-29 05:30:00,
2013-09-29 07:35:00,47.8,43.2,29.77,ENE,67,4.4,8.1,84,0.00,CLR,,0.00,0.0,WeatherDisplay:10.37,2013-09-29 05:35:00,
2013-09-29 07:40:00,47.8,43.2,29.77,ENE,67,5.2,8.1,84,0.00,CLR,,0.00,0.0,WeatherDisplay:10.37,2013-09-29 05:40:00,
2013-09-29 07:45:00,47.8,43.2,29.77,ENE,70,4.4,10.4,84,0.00,CLR,,0.00,5.0,WeatherDisplay:10.37,2013-09-29 05:45:00,
2013-09-29 07:50:00,47.8,43.2,29.77,ENE,59,6.0,11.5,84,0.00,CLR,,0.00,7.0,WeatherDisplay:10.37,2013-09-29 05:50:00,
2013-09-29 07:55:00,47.8,43.2,29.78,ENE,70,4.8,6.9,84,0.00,CLR,,0.00,9.0,WeatherDisplay:10.37,2013-09-29 05:55:00,
2013-09-29 08:00:00,47.8,43.2,29.78,ENE,70,3.1,6.9,84,0.00,CLR,,0.00,12.0,WeatherDisplay:10.37,2013-09-29 06:00:00,
2013-09-29 08:05:00,47.7,43.1,29.78,ENE,66,5.2,8.1,84,0.00,CLR,,0.00,14.0,WeatherDisplay:10.37,2013-09-29 06:05:00,
2013-09-29 08:10:00,47.7,43.1,29.77,ENE,76,6.5,7.0,84,0.00,CLR,,0.00,16.0,WeatherDisplay:10.37,2013-09-29 06:10:00,
2013-09-29 08:15:00,47.7,43.1,29.77,ENE,75,6.1,12.7,84,0.00,CLR,,0.00,19.0,WeatherDisplay:10.37,2013-09-29 06:15:00,
2013-09-29 08:20:00,47.8,43.2,29.77,ENE,73,5.3,10.4,84,0.00,CLR,,0.00,21.0,WeatherDisplay:10.37,2013-09-29 06:20:00,
2013-09-29 08:25:00,47.8,43.2,29.77,East,88,6.7,12.0,84,0.00,CLR,,0.00,39.0,WeatherDisplay:10.37,2013-09-29 06:25:00,
2013-09-29 08:30:00,47.9,43.3,29.78,ESE,103,3.3,8.1,84,0.00,CLR,,0.00,53.0,WeatherDisplay:10.37,2013-09-29 06:30:00,
2013-09-29 08:36:00,48.1,43.5,29.78,ENE,67,9.0,11.5,84,0.00,CLR,,0.00,67.0,WeatherDisplay:10.37,2013-09-29 06:36:00,
2013-09-29 08:41:00,48.3,43.4,29.77,NE,55,8.7,14.0,83,0.00,CLR,,0.00,76.0,WeatherDisplay:10.37,2013-09-29 06:41:00,
2013-09-29 08:46:00,48.5,43.6,29.78,ENE,76,5.6,8.1,83,0.00,CLR,,0.00,88.0,WeatherDisplay:10.37,2013-09-29 06:46:00,
2013-09-29 08:51:00,48.6,43.7,29.78,ENE,72,5.6,11.5,83,0.00,CLR,,0.00,107.0,WeatherDisplay:10.37,2013-09-29 06:51:00,
2013-09-29 08:56:00,48.8,43.8,29.78,East,79,6.1,11.5,83,0.00,BKN,,0.00,121.0,WeatherDisplay:10.37,2013-09-29 06:56:00,
2013-09-29 09:01:00,49.0,43.7,29.78,East,79,10.2,13.8,82,0.00,BKN,,0.00,139.0,WeatherDisplay:10.37,2013-09-29 07:01:00,
2013-09-29 09:06:00,49.3,44.0,29.78,ENE,72,10.0,17.3,82,0.00,BKN,,0.00,153.0,WeatherDisplay:10.37,2013-09-29 07:06:00,
2013-09-29 09:11:00,49.5,43.9,29.78,ENE,77,10.4,17.3,81,0.00,BKN,,0.00,165.0,WeatherDisplay:10.37,2013-09-29 07:11:00,
2013-09-29 09:16:00,49.6,43.7,29.78,ENE,66,10.2,11.5,80,0.00,BKN,,0.00,163.0,WeatherDisplay:10.37,2013-09-29 07:16:00,
2013-09-29 09:21:00,49.8,43.9,29.78,ENE,65,11.2,18.4,80,0.00,BKN,,0.00,176.0,WeatherDisplay:10.37,2013-09-29 07:21:00,
2013-09-29 09:26:00,49.9,43.6,29.78,East,87,11.7,17.3,79,0.00,BKN,,0.00,204.0,WeatherDisplay:10.37,2013-09-29 07:26:00,
2013-09-29 09:31:00,50.1,43.8,29.78,East,80,5.8,11.5,79,0.00,BKN,,0.00,206.0,WeatherDisplay:10.37,2013-09-29 07:31:00,
2013-09-29 09:40:00,50.4,44.1,29.78,East,94,10.7,16.1,79,0.00,BKN,,0.00,257.0,WeatherDisplay:10.37,2013-09-29 07:40:00,
2013-09-29 09:45:00,50.7,44.4,29.78,ENE,76,12.4,12.4,79,0.00,BKN,,0.00,248.0,WeatherDisplay:10.37,2013-09-29 07:45:00,
2013-09-29 09:50:00,50.8,44.2,29.78,East,89,8.3,11.5,78,0.00,BKN,,0.00,255.0,WeatherDisplay:10.37,2013-09-29 07:50:00,
2013-09-29 09:55:00,51.0,44.4,29.78,East,80,10.6,18.4,78,0.00,BKN,,0.00,288.0,WeatherDisplay:10.37,2013-09-29 07:55:00,
2013-09-29 10:00:00,51.1,44.1,29.78,ENE,75,12.0,16.1,77,0.00,BKN,,0.00,241.0,WeatherDisplay:10.37,2013-09-29 08:00:00,
2013-09-29 10:01:00,51.6,44.6,29.78,ENE,70,8.7,13.8,77,0.00,SCT,,0.00,334.0,WeatherDisplay:10.37,2013-09-29 08:01:00,
2013-09-29 10:02:00,51.6,44.6,29.78,ESE,102,9.7,15.0,77,0.00,SCT,,0.00,334.0,WeatherDisplay:10.37,2013-09-29 08:02:00,
2013-09-29 10:03:00,51.6,44.6,29.78,ESE,107,13.7,18.4,77,0.00,SCT,,0.00,304.0,WeatherDisplay:10.37,2013-09-29 08:03:00,
2013-09-29 10:04:00,51.7,44.4,29.78,ENE,64,11.3,18.0,76,0.00,BKN,,0.00,295.0,WeatherDisplay:10.37,2013-09-29 08:04:00,
2013-09-29 10:05:00,51.3,44.3,29.78,East,89,11.5,18.4,77,0.00,SCT,,0.00,302.0,WeatherDisplay:10.37,2013-09-29 08:05:00,
2013-09-29 10:06:00,51.7,44.4,29.78,ENE,63,13.2,20.0,76,0.00,BKN,,0.00,199.0,WeatherDisplay:10.37,2013-09-29 08:06:00,
2013-09-29 10:07:00,51.7,44.4,29.78,East,90,15.4,20.7,76,0.00,BKN,,0.00,257.0,WeatherDisplay:10.37,2013-09-29 08:07:00,
2013-09-29 10:10:00,51.5,44.5,29.78,East,86,11.3,18.4,77,0.00,SCT,,0.00,325.0,WeatherDisplay:10.37,2013-09-29 08:10:00,
2013-09-29 10:15:00,51.7,44.4,29.78,NE,55,11.8,16.1,76,0.00,BKN,,0.00,199.0,WeatherDisplay:10.37,2013-09-29 08:15:00,
2013-09-29 10:20:00,51.8,44.5,29.78,ENE,76,9.7,13.8,76,0.00,SCT,,0.00,355.0,WeatherDisplay:10.37,2013-09-29 08:20:00,
2013-09-29 10:25:00,52.0,44.6,29.78,ENE,63,10.9,19.6,76,0.00,SCT,,0.00,329.0,WeatherDisplay:10.37,2013-09-29 08:25:00,
2013-09-29 10:30:00,52.2,44.5,29.78,East,79,11.0,18.4,75,0.00,BKN,,0.00,265.0,WeatherDisplay:10.37,2013-09-29 08:30:00,
2013-09-29 10:35:00,52.4,44.7,29.78,East,94,11.0,18.4,75,0.00,SCT,,0.00,313.0,WeatherDisplay:10.37,2013-09-29 08:35:00,
2013-09-29 10:40:00,52.5,44.8,29.78,East,82,12.6,19.6,75,0.00,BKN,,0.00,279.0,WeatherDisplay:10.37,2013-09-29 08:40:00,
2013-09-29 10:45:00,52.7,44.6,29.78,ENE,71,9.9,15.0,74,0.00,BKN,,0.00,294.0,WeatherDisplay:10.37,2013-09-29 08:45:00,
2013-09-29 10:50:00,52.9,45.2,29.78,East,84,7.7,11.5,75,0.00,SCT,,0.00,380.0,WeatherDisplay:10.37,2013-09-29 08:50:00,
2013-09-29 10:55:00,53.3,45.2,29.78,ENE,57,8.5,12.7,74,0.00,SCT,,0.00,383.0,WeatherDisplay:10.37,2013-09-29 08:55:00,
2013-09-29 11:00:00,53.5,45.0,29.78,East,97,10.4,18.4,73,0.00,SCT,,0.00,404.0,WeatherDisplay:10.37,2013-09-29 09:00:00,
2013-09-29 11:05:00,53.7,45.2,29.77,East,86,11.2,15.0,73,0.00,SCT,,0.00,446.0,WeatherDisplay:10.37,2013-09-29 09:05:00,
2013-09-29 11:10:00,54.1,45.6,29.77,ENE,69,9.0,17.3,73,0.00,SCT,,0.00,448.0,WeatherDisplay:10.37,2013-09-29 09:10:00,
2013-09-29 11:15:00,54.4,45.9,29.77,NE,49,11.4,16.0,73,0.00,SCT,,0.00,432.0,WeatherDisplay:10.37,2013-09-29 09:15:00,
2013-09-29 11:20:00,54.6,45.7,29.77,East,82,12.1,18.4,72,0.00,SCT,,0.00,478.0,WeatherDisplay:10.37,2013-09-29 09:20:00,
2013-09-29 11:25:00,54.7,45.5,29.77,NE,50,10.4,19.6,71,0.00,SCT,,0.00,478.0,WeatherDisplay:10.37,2013-09-29 09:25:00,
2013-09-29 11:30:00,55.0,46.1,29.77,ENE,61,11.0,15.0,72,0.00,SCT,,0.00,490.0,WeatherDisplay:10.37,2013-09-29 09:30:00,
2013-09-29 11:35:00,55.3,45.7,29.77,East,86,8.5,17.3,70,0.00,SCT,,0.00,420.0,WeatherDisplay:10.37,2013-09-29 09:35:00,
2013-09-29 11:40:00,55.4,45.8,29.77,East,92,8.2,17.3,70,0.00,SCT,,0.00,357.0,WeatherDisplay:10.37,2013-09-29 09:40:00,
2013-09-29 11:45:00,55.5,45.9,29.77,East,94,13.5,18.4,70,0.00,SCT,,0.00,461.0,WeatherDisplay:10.37,2013-09-29 09:45:00,
2013-09-29 11:50:00,55.7,46.0,29.77,ENE,76,13.0,18.4,70,0.00,SCT,,0.00,487.0,WeatherDisplay:10.37,2013-09-29 09:50:00,
2013-09-29 11:55:00,56.0,46.3,29.77,East,88,11.7,13.8,70,0.00,SCT,,0.00,522.0,WeatherDisplay:10.37,2013-09-29 09:55:00,
2013-09-29 12:00:00,56.2,46.5,29.77,East,87,8.8,12.7,70,0.00,SCT,,0.00,519.0,WeatherDisplay:10.37,2013-09-29 10:00:00,
2013-09-29 12:05:00,56.5,46.4,29.76,East,90,12.1,18.0,69,0.00,SCT,,0.00,476.0,WeatherDisplay:10.37,2013-09-29 10:05:00,
2013-09-29 12:10:00,56.8,46.3,29.76,ENE,59,15.0,18.4,68,0.00,SCT,,0.00,513.0,WeatherDisplay:10.37,2013-09-29 10:10:00,
2013-09-29 12:15:00,57.1,47.0,29.76,ESE,103,8.6,12.0,69,0.00,SCT,,0.00,515.0,WeatherDisplay:10.37,2013-09-29 10:15:00,
2013-09-29 12:20:00,57.4,46.9,29.76,East,99,7.8,17.3,68,0.00,SCT,,0.00,557.0,WeatherDisplay:10.37,2013-09-29 10:20:00,
2013-09-29 12:25:00,57.6,46.7,29.77,East,83,6.1,17.3,67,0.00,SCT,,0.00,566.0,WeatherDisplay:10.37,2013-09-29 10:25:00,
2013-09-29 12:30:00,57.7,46.4,29.77,ENE,76,13.3,23.0,66,0.00,FEW,,0.00,578.0,WeatherDisplay:10.37,2013-09-29 10:30:00,
2013-09-29 12:35:00,57.8,46.9,29.77,East,88,12.9,18.0,67,0.00,FEW,,0.00,591.0,WeatherDisplay:10.37,2013-09-29 10:35:00,
2013-09-29 12:40:00,57.9,47.0,29.76,NNE,33,13.8,15.0,67,0.00,SCT,,0.00,519.0,WeatherDisplay:10.37,2013-09-29 10:40:00,
2013-09-29 12:45:00,58.0,47.1,29.76,ESE,104,12.1,14.0,67,0.00,SCT,,0.00,512.0,WeatherDisplay:10.37,2013-09-29 10:45:00,
2013-09-29 12:50:00,58.2,46.9,29.76,ENE,73,14.4,19.6,66,0.00,SCT,,0.00,466.0,WeatherDisplay:10.37,2013-09-29 10:50:00,
2013-09-29 12:55:00,58.3,47.0,29.76,NE,49,12.7,19.6,66,0.00,SCT,,0.00,527.0,WeatherDisplay:10.37,2013-09-29 10:55:00,
2013-09-29 12:56:00,58.7,46.9,29.76,East,79,14.5,19.6,65,0.00,SCT,,0.00,504.0,WeatherDisplay:10.37,2013-09-29 10:56:00,
2013-09-29 12:57:00,58.7,46.9,29.76,East,84,10.6,15.0,65,0.00,SCT,,0.00,487.0,WeatherDisplay:10.37,2013-09-29 10:57:00,
2013-09-29 12:58:00,58.8,47.4,29.76,East,89,9.0,13.8,66,0.00,SCT,,0.00,466.0,WeatherDisplay:10.37,2013-09-29 10:58:00,
2013-09-29 12:59:00,58.8,47.4,29.76,ENE,76,10.1,20.0,66,0.00,SCT,,0.00,487.0,WeatherDisplay:10.37,2013-09-29 10:59:00,
2013-09-29 13:00:00,58.5,47.2,29.76,East,80,12.3,18.4,66,0.00,SCT,,0.00,524.0,WeatherDisplay:10.37,2013-09-29 11:00:00,
2013-09-29 13:01:00,58.9,47.5,29.76,NE,47,11.1,16.1,66,0.00,SCT,,0.00,506.0,WeatherDisplay:10.37,2013-09-29 11:01:00,
2013-09-29 13:05:00,58.7,46.9,29.76,ENE,72,13.9,21.9,65,0.00,SCT,,0.00,534.0,WeatherDisplay:10.37,2013-09-29 11:05:00,
2013-09-29 13:13:00,58.9,47.5,29.76,NE,47,11.1,16.1,66,0.00,SCT,,0.00,506.0,WeatherDisplay:10.37,2013-09-29 11:13:00,
2013-09-29 13:18:00,59.1,47.7,29.76,East,94,7.5,19.6,66,0.00,SCT,,0.00,568.0,WeatherDisplay:10.37,2013-09-29 11:18:00,
2013-09-29 13:23:00,59.3,47.5,29.76,East,97,10.2,12.7,65,0.00,SCT,,0.00,526.0,WeatherDisplay:10.37,2013-09-29 11:23:00,
2013-09-29 13:28:00,59.5,47.7,29.76,ESE,107,11.7,16.1,65,0.00,SCT,,0.00,548.0,WeatherDisplay:10.37,2013-09-29 11:28:00,
2013-09-29 13:29:00,60.0,47.8,29.76,East,94,11.7,18.4,64,0.00,FEW,,0.00,584.0,WeatherDisplay:10.37,2013-09-29 11:29:00,
2013-09-29 13:30:00,60.1,47.9,29.76,ENE,75,9.2,18.4,64,0.00,FEW,,0.00,587.0,WeatherDisplay:10.37,2013-09-29 11:30:00,
2013-09-29 13:31:00,60.1,47.9,29.76,East,83,10.4,13.8,64,0.00,FEW,,0.00,589.0,WeatherDisplay:10.37,2013-09-29 11:31:00,
2013-09-29 13:32:00,60.2,48.0,29.76,East,84,10.8,15.0,64,0.00,FEW,,0.00,592.0,WeatherDisplay:10.37,2013-09-29 11:32:00,
2013-09-29 13:33:00,59.6,47.4,29.76,East,90,12.2,17.3,64,0.00,FEW,,0.00,568.0,WeatherDisplay:10.37,2013-09-29 11:33:00,
2013-09-29 13:34:00,60.3,47.6,29.76,NE,46,15.3,19.6,63,0.00,FEW,,0.00,529.0,WeatherDisplay:10.37,2013-09-29 11:34:00,
2013-09-29 13:35:00,60.3,47.6,29.76,ESE,102,16.4,21.9,63,0.00,SCT,,0.00,527.0,WeatherDisplay:10.37,2013-09-29 11:35:00,
2013-09-29 13:36:00,60.4,47.3,29.76,East,92,12.5,21.9,62,0.00,SCT,,0.00,555.0,WeatherDisplay:10.37,2013-09-29 11:36:00,
2013-09-29 13:41:00,60.1,47.9,29.76,ENE,75,10.6,13.8,64,0.00,FEW,,0.00,589.0,WeatherDisplay:10.37,2013-09-29 11:41:00,
2013-09-29 13:46:00,60.4,47.3,29.76,ENE,76,12.3,21.9,62,0.00,SCT,,0.00,555.0,WeatherDisplay:10.37,2013-09-29 11:46:00,
2013-09-29 13:51:00,60.5,47.4,29.76,East,97,13.0,19.6,62,0.00,SCT,,0.00,552.0,WeatherDisplay:10.37,2013-09-29 11:51:00,
2013-09-29 13:56:00,60.6,47.5,29.76,East,88,11.9,20.7,62,0.00,FEW,,0.00,599.0,WeatherDisplay:10.37,2013-09-29 11:56:00,
2013-09-29 14:01:00,60.8,47.7,29.76,East,88,8.8,13.8,62,0.00,SCT,,0.00,497.0,WeatherDisplay:10.37,2013-09-29 12:01:00,
2013-09-29 14:06:00,60.9,47.8,29.76,East,88,11.3,19.6,62,0.00,SCT,,0.00,531.0,WeatherDisplay:10.37,2013-09-29 12:06:00,
2013-09-29 14:11:00,61.1,48.0,29.76,East,94,16.4,19.6,62,0.00,FEW,,0.00,540.0,WeatherDisplay:10.37,2013-09-29 12:11:00,
2013-09-29 14:16:00,61.1,48.0,29.76,ESE,116,11.0,19.6,62,0.00,FEW,,0.00,548.0,WeatherDisplay:10.37,2013-09-29 12:16:00,
2013-09-29 14:21:00,61.4,48.2,29.76,ENE,72,14.8,19.6,62,0.00,FEW,,0.00,559.0,WeatherDisplay:10.37,2013-09-29 12:21:00,
2013-09-29 14:26:00,61.6,48.0,29.76,East,88,12.6,15.0,61,0.00,FEW,,0.00,554.0,WeatherDisplay:10.37,2013-09-29 12:26:00,
2013-09-29 14:31:00,61.7,48.1,29.76,East,100,9.0,13.8,61,0.00,FEW,,0.00,564.0,WeatherDisplay:10.37,2013-09-29 12:31:00,
2013-09-29 14:36:00,61.9,47.8,29.76,East,79,11.6,19.6,60,0.00,FEW,,0.00,526.0,WeatherDisplay:10.37,2013-09-29 12:36:00,
2013-09-29 14:41:00,62.1,48.5,29.75,East,89,9.1,16.0,61,0.00,FEW,,0.00,541.0,WeatherDisplay:10.37,2013-09-29 12:41:00,
2013-09-29 14:46:00,62.2,47.7,29.76,East,85,11.3,23.0,59,0.00,FEW,,0.00,548.0,WeatherDisplay:10.37,2013-09-29 12:46:00,
2013-09-29 14:51:00,62.0,47.5,29.75,East,92,12.4,19.6,59,0.00,FEW,,0.00,538.0,WeatherDisplay:10.37,2013-09-29 12:51:00,
2013-09-29 14:56:00,62.0,47.5,29.75,East,92,10.2,19.6,59,0.00,FEW,,0.00,534.0,WeatherDisplay:10.37,2013-09-29 12:56:00,
2013-09-29 15:01:00,62.2,47.7,29.75,East,94,9.1,17.3,59,0.00,FEW,,0.00,487.0,WeatherDisplay:10.37,2013-09-29 13:01:00,
2013-09-29 15:06:00,62.5,47.5,29.75,ENE,74,10.8,18.4,58,0.00,FEW,,0.00,466.0,WeatherDisplay:10.37,2013-09-29 13:06:00,
2013-09-29 15:11:00,62.5,47.5,29.75,East,81,10.8,18.4,58,0.00,FEW,,0.00,504.0,WeatherDisplay:10.37,2013-09-29 13:11:00,
2013-09-29 15:16:00,62.6,47.6,29.75,ESE,109,9.9,13.8,58,0.00,FEW,,0.00,508.0,WeatherDisplay:10.37,2013-09-29 13:16:00,
2013-09-29 15:21:00,62.7,47.2,29.75,ENE,72,11.4,19.6,57,0.00,FEW,,0.00,496.0,WeatherDisplay:10.37,2013-09-29 13:21:00,
2013-09-29 15:26:00,62.9,47.9,29.75,ESE,102,6.9,16.1,58,0.00,FEW,,0.00,482.0,WeatherDisplay:10.37,2013-09-29 13:26:00,
2013-09-29 15:32:00,63.1,48.1,29.75,East,80,6.9,15.0,58,0.00,FEW,,0.00,471.0,WeatherDisplay:10.37,2013-09-29 13:32:00,
2013-09-29 15:37:00,63.1,47.6,29.75,East,82,9.2,20.7,57,0.00,FEW,,0.00,466.0,WeatherDisplay:10.37,2013-09-29 13:37:00,
2013-09-29 15:42:00,63.3,48.2,29.75,NE,53,10.1,16.0,58,0.00,FEW,,0.00,461.0,WeatherDisplay:10.37,2013-09-29 13:42:00,
2013-09-29 15:47:00,63.2,47.7,29.74,East,88,11.8,19.6,57,0.00,FEW,,0.00,454.0,WeatherDisplay:10.37,2013-09-29 13:47:00,
2013-09-29 15:50:00,63.2,47.7,29.74,East,88,10.3,16.1,57,0.00,FEW,,0.00,431.0,WeatherDisplay:10.37,2013-09-29 13:50:00,
2013-09-29 15:51:00,63.2,47.7,29.74,East,80,16.2,24.2,57,0.00,FEW,,0.00,431.0,WeatherDisplay:10.37,2013-09-29 13:51:00,
2013-09-29 15:52:00,63.1,47.1,29.75,ENE,70,13.4,23.0,56,0.00,FEW,,0.00,446.0,WeatherDisplay:10.37,2013-09-29 13:52:00,
2013-09-29 15:53:00,63.1,47.6,29.74,East,101,12.0,15.0,57,0.00,FEW,,0.00,427.0,WeatherDisplay:10.37,2013-09-29 13:53:00,
2013-09-29 15:54:00,63.1,47.1,29.74,ENE,61,13.8,22.0,56,0.00,FEW,,0.00,427.0,WeatherDisplay:10.37,2013-09-29 13:54:00,
2013-09-29 15:56:00,63.1,47.1,29.74,ESE,113,13.0,21.9,56,0.00,FEW,,0.00,424.0,WeatherDisplay:10.37,2013-09-29 13:56:00,
2013-09-29 15:57:00,63.1,47.6,29.74,East,93,9.6,19.0,57,0.00,FEW,,0.00,438.0,WeatherDisplay:10.37,2013-09-29 13:57:00,
2013-09-29 15:58:00,63.0,47.0,29.74,East,98,12.3,18.0,56,0.00,FEW,,0.00,417.0,WeatherDisplay:10.37,2013-09-29 13:58:00,
2013-09-29 15:59:00,63.0,47.0,29.74,East,86,14.4,19.6,56,0.00,FEW,,0.00,415.0,WeatherDisplay:10.37,2013-09-29 13:59:00,
2013-09-29 16:01:00,63.0,47.5,29.74,East,94,9.5,17.3,57,0.00,FEW,,0.00,410.0,WeatherDisplay:10.37,2013-09-29 14:01:00,
2013-09-29 16:02:00,63.1,47.6,29.74,East,97,13.1,16.1,57,0.00,FEW,,0.00,427.0,WeatherDisplay:10.37,2013-09-29 14:02:00,
2013-09-29 16:03:00,63.1,47.6,29.74,East,91,12.6,19.6,57,0.00,FEW,,0.00,406.0,WeatherDisplay:10.37,2013-09-29 14:03:00,
2013-09-29 16:05:00,63.1,47.6,29.74,East,98,8.7,12.7,57,0.00,FEW,,0.00,403.0,WeatherDisplay:10.37,2013-09-29 14:05:00,
2013-09-29 16:06:00,63.1,47.6,29.75,ESE,115,11.2,13.0,57,0.00,FEW,,0.00,399.0,WeatherDisplay:10.37,2013-09-29 14:06:00,
2013-09-29 16:07:00,63.0,47.0,29.74,ESE,107,12.8,19.6,56,0.00,FEW,,0.00,422.0,WeatherDisplay:10.37,2013-09-29 14:07:00,
2013-09-29 16:08:00,63.2,48.2,29.74,East,82,5.0,11.5,58,0.00,FEW,,0.00,396.0,WeatherDisplay:10.37,2013-09-29 14:08:00,
2013-09-29 16:09:00,63.2,47.7,29.74,ENE,76,6.6,12.7,57,0.00,FEW,,0.00,394.0,WeatherDisplay:10.37,2013-09-29 14:09:00,
2013-09-29 16:11:00,63.2,47.7,29.74,East,101,12.1,21.9,57,0.00,FEW,,0.00,392.0,WeatherDisplay:10.37,2013-09-29 14:11:00,
2013-09-29 16:12:00,63.0,47.5,29.74,East,88,8.4,17.3,57,0.00,FEW,,0.00,410.0,WeatherDisplay:10.37,2013-09-29 14:12:00,
2013-09-29 16:13:00,63.2,47.7,29.74,ESE,105,7.7,12.7,57,0.00,FEW,,0.00,387.0,WeatherDisplay:10.37,2013-09-29 14:13:00,
2013-09-29 16:14:00,63.2,47.2,29.75,East,97,13.1,19.6,56,0.00,FEW,,0.00,383.0,WeatherDisplay:10.37,2013-09-29 14:14:00,
2013-09-29 16:15:00,63.2,47.2,29.75,East,80,12.9,16.1,56,0.00,FEW,,0.00,383.0,WeatherDisplay:10.37,2013-09-29 14:15:00,
2013-09-29 16:16:00,63.2,47.2,29.75,ENE,77,13.4,20.7,56,0.00,FEW,,0.00,380.0,WeatherDisplay:10.37,2013-09-29 14:16:00,
2013-09-29 16:17:00,63.1,47.6,29.75,East,98,10.6,12.7,57,0.00,FEW,,0.00,397.0,WeatherDisplay:10.37,2013-09-29 14:17:00,
2013-09-29 16:22:00,63.2,47.7,29.75,ESE,113,7.7,16.1,57,0.00,FEW,,0.00,387.0,WeatherDisplay:10.37,2013-09-29 14:22:00,
2013-09-29 16:27:00,63.2,47.2,29.75,East,80,12.0,18.4,56,0.00,FEW,,0.00,380.0,WeatherDisplay:10.37,2013-09-29 14:27:00,
2013-09-29 16:32:00,63.3,47.3,29.75,ESE,105,14.1,19.6,56,0.00,FEW,,0.00,366.0,WeatherDisplay:10.37,2013-09-29 14:32:00,
2013-09-29 16:37:00,63.2,47.2,29.75,NE,49,9.2,13.8,56,0.00,FEW,,0.00,359.0,WeatherDisplay:10.37,2013-09-29 14:37:00,
2013-09-29 16:42:00,63.3,47.8,29.75,ENE,76,8.5,13.0,57,0.00,FEW,,0.00,346.0,WeatherDisplay:10.37,2013-09-29 14:42:00,
2013-09-29 16:47:00,63.3,47.3,29.75,ENE,75,10.5,19.6,56,0.00,FEW,,0.00,336.0,WeatherDisplay:10.37,2013-09-29 14:47:00,
2013-09-29 16:52:00,63.3,47.3,29.75,ESE,122,15.0,20.7,56,0.00,FEW,,0.00,315.0,WeatherDisplay:10.37,2013-09-29 14:52:00,
2013-09-29 16:57:00,63.3,47.3,29.75,ESE,107,11.0,15.0,56,0.00,FEW,,0.00,302.0,WeatherDisplay:10.37,2013-09-29 14:57:00,
2013-09-29 17:01:00,63.1,47.1,29.74,East,85,10.7,18.4,56,0.00,FEW,,0.00,272.0,WeatherDisplay:10.37,2013-09-29 15:01:00,
2013-09-29 17:02:00,63.2,47.2,29.74,East,100,10.6,19.6,56,0.00,FEW,,0.00,294.0,WeatherDisplay:10.37,2013-09-29 15:02:00,
2013-09-29 17:03:00,63.1,47.1,29.75,East,97,12.6,17.3,56,0.00,FEW,,0.00,267.0,WeatherDisplay:10.37,2013-09-29 15:03:00,
2013-09-29 17:04:00,63.1,47.1,29.75,ESE,104,12.4,19.6,56,0.00,FEW,,0.00,265.0,WeatherDisplay:10.37,2013-09-29 15:04:00,
2013-09-29 17:05:00,63.1,47.1,29.75,East,84,9.8,13.8,56,0.00,FEW,,0.00,264.0,WeatherDisplay:10.37,2013-09-29 15:05:00,
2013-09-29 17:06:00,63.1,47.1,29.75,East,100,9.6,12.7,56,0.00,FEW,,0.00,260.0,WeatherDisplay:10.37,2013-09-29 15:06:00,
2013-09-29 17:07:00,63.2,47.2,29.74,East,82,11.3,12.7,56,0.00,FEW,,0.00,283.0,WeatherDisplay:10.37,2013-09-29 15:07:00,
2013-09-29 17:08:00,63.1,47.1,29.74,East,86,8.8,13.8,56,0.00,FEW,,0.00,257.0,WeatherDisplay:10.37,2013-09-29 15:08:00,
2013-09-29 17:09:00,63.1,47.6,29.74,East,84,10.2,18.4,57,0.00,FEW,,0.00,255.0,WeatherDisplay:10.37,2013-09-29 15:09:00,
2013-09-29 17:12:00,63.1,47.1,29.74,East,90,10.4,17.3,56,0.00,FEW,,0.00,272.0,WeatherDisplay:10.37,2013-09-29 15:12:00,
2013-09-29 17:17:00,63.1,47.1,29.74,East,93,11.0,13.8,56,0.00,FEW,,0.00,258.0,WeatherDisplay:10.37,2013-09-29 15:17:00,
2013-09-29 17:22:00,63.0,47.0,29.74,East,88,8.8,13.8,56,0.00,FEW,,0.00,250.0,WeatherDisplay:10.37,2013-09-29 15:22:00,
2013-09-29 17:27:00,62.9,46.9,29.74,East,88,5.0,9.2,56,0.00,FEW,,0.00,237.0,WeatherDisplay:10.37,2013-09-29 15:27:00,
2013-09-29 17:32:00,62.8,46.8,29.74,ENE,75,9.7,16.1,56,0.00,FEW,,0.00,225.0,WeatherDisplay:10.37,2013-09-29 15:32:00,
2013-09-29 17:37:00,62.8,47.3,29.75,ENE,78,9.0,13.8,57,0.00,FEW,,0.00,209.0,WeatherDisplay:10.37,2013-09-29 15:37:00,
2013-09-29 17:42:00,62.7,47.2,29.74,East,80,10.2,19.0,57,0.00,FEW,,0.00,195.0,WeatherDisplay:10.37,2013-09-29 15:42:00,
2013-09-29 17:47:00,62.6,47.6,29.75,ENE,74,5.4,11.5,58,0.00,FEW,,0.00,178.0,WeatherDisplay:10.37,2013-09-29 15:47:00,
2013-09-29 17:52:00,62.5,47.0,29.75,ESE,111,9.5,15.0,57,0.00,FEW,,0.00,162.0,WeatherDisplay:10.37,2013-09-29 15:52:00,
2013-09-29 17:57:00,62.5,47.5,29.75,ENE,77,4.4,11.5,58,0.00,FEW,,0.00,148.0,WeatherDisplay:10.37,2013-09-29 15:57:00,
2013-09-29 18:02:00,62.4,47.4,29.75,ENE,74,5.2,10.0,58,0.00,FEW,,0.00,137.0,WeatherDisplay:10.37,2013-09-29 16:02:00,
2013-09-29 18:07:00,62.3,47.3,29.75,ENE,70,11.4,17.3,58,0.00,FEW,,0.00,120.0,WeatherDisplay:10.37,2013-09-29 16:07:00,
2013-09-29 18:12:00,62.1,47.1,29.75,East,92,10.2,13.8,58,0.00,FEW,,0.00,105.0,WeatherDisplay:10.37,2013-09-29 16:12:00,
2013-09-29 18:17:00,62.0,47.0,29.75,East,97,9.8,13.8,58,0.00,FEW,,0.00,93.0,WeatherDisplay:10.37,2013-09-29 16:17:00,
2013-09-29 18:22:00,61.9,47.4,29.75,ENE,78,8.6,12.7,59,0.00,FEW,,0.00,81.0,WeatherDisplay:10.37,2013-09-29 16:22:00,
2013-09-29 18:27:00,61.8,47.3,29.75,ENE,78,10.0,19.6,59,0.00,FEW,,0.00,69.0,WeatherDisplay:10.37,2013-09-29 16:27:00,
2013-09-29 18:32:00,61.7,47.2,29.76,ENE,63,8.5,15.0,59,0.00,FEW,,0.00,58.0,WeatherDisplay:10.37,2013-09-29 16:32:00,
2013-09-29 18:37:00,61.6,47.1,29.76,ENE,77,5.7,8.1,59,0.00,FEW,,0.00,49.0,WeatherDisplay:10.37,2013-09-29 16:37:00,
2013-09-29 18:42:00,61.5,47.5,29.76,East,83,7.8,11.5,60,0.00,FEW,,0.00,35.0,WeatherDisplay:10.37,2013-09-29 16:42:00,
2013-09-29 18:47:00,61.3,47.3,29.76,ENE,69,5.7,8.1,60,0.00,FEW,,0.00,28.0,WeatherDisplay:10.37,2013-09-29 16:47:00,
2013-09-29 18:52:00,61.0,47.0,29.76,ESE,106,5.9,9.2,60,0.00,FEW,,0.00,23.0,WeatherDisplay:10.37,2013-09-29 16:52:00,
2013-09-29 18:57:00,60.8,46.8,29.76,East,94,8.7,13.8,60,0.00,FEW,,0.00,18.0,WeatherDisplay:10.37,2013-09-29 16:57:00,
2013-09-29 19:02:00,60.5,47.0,29.76,East,81,7.7,11.0,61,0.00,FEW,,0.00,16.0,WeatherDisplay:10.37,2013-09-29 17:02:00,
2013-09-29 19:07:00,60.3,46.8,29.76,NE,45,7.6,10.0,61,0.00,FEW,,0.00,12.0,WeatherDisplay:10.37,2013-09-29 17:07:00,
2013-09-29 19:12:00,60.1,47.0,29.76,East,82,8.1,18.4,62,0.00,FEW,,0.00,9.0,WeatherDisplay:10.37,2013-09-29 17:12:00,
2013-09-29 19:17:00,59.9,46.8,29.76,East,84,8.1,11.5,62,0.00,FEW,,0.00,7.0,WeatherDisplay:10.37,2013-09-29 17:17:00,
2013-09-29 19:22:00,59.7,46.6,29.77,East,87,8.6,11.5,62,0.00,FEW,,0.00,5.0,WeatherDisplay:10.37,2013-09-29 17:22:00,
2013-09-29 19:27:00,59.5,46.4,29.77,ENE,66,8.9,12.7,62,0.00,FEW,,0.00,0.0,WeatherDisplay:10.37,2013-09-29 17:27:00,
2013-09-29 19:33:00,59.3,46.7,29.76,East,99,8.9,12.0,63,0.00,FEW,,0.00,0.0,WeatherDisplay:10.37,2013-09-29 17:33:00,
2013-09-29 19:38:00,59.1,46.5,29.77,East,97,9.4,11.5,63,0.00,FEW,,0.00,0.0,WeatherDisplay:10.37,2013-09-29 17:38:00,
2013-09-29 19:43:00,59.0,46.4,29.77,East,87,8.4,12.7,63,0.00,FEW,,0.00,0.0,WeatherDisplay:10.37,2013-09-29 17:43:00,
2013-09-29 19:48:00,58.9,46.3,29.77,East,98,9.4,16.1,63,0.00,FEW,,0.00,0.0,WeatherDisplay:10.37,2013-09-29 17:48:00,
2013-09-29 19:53:00,58.8,46.2,29.77,East,86,5.8,11.5,63,0.00,FEW,,0.00,0.0,WeatherDisplay:10.37,2013-09-29 17:53:00,
2013-09-29 19:58:00,58.6,46.0,29.77,East,82,10.2,13.8,63,0.00,FEW,,0.00,0.0,WeatherDisplay:10.37,2013-09-29 17:58:00,
2013-09-29 20:01:00,58.3,45.7,29.77,East,83,9.2,13.8,63,0.00,FEW,,0.00,0.0,WeatherDisplay:10.37,2013-09-29 18:01:00,
2013-09-29 20:02:00,58.3,45.7,29.77,East,86,7.3,8.1,63,0.00,FEW,,0.00,0.0,WeatherDisplay:10.37,2013-09-29 18:02:00,
2013-09-29 20:03:00,58.4,45.8,29.77,East,87,10.1,11.5,63,0.00,FEW,,0.00,0.0,WeatherDisplay:10.37,2013-09-29 18:03:00,
2013-09-29 20:08:00,58.4,45.8,29.77,East,81,9.8,11.0,63,0.00,FEW,,0.00,0.0,WeatherDisplay:10.37,2013-09-29 18:08:00,
2013-09-29 20:13:00,58.3,45.7,29.77,East,82,6.6,8.1,63,0.00,FEW,,0.00,0.0,WeatherDisplay:10.37,2013-09-29 18:13:00,
2013-09-29 20:18:00,58.2,45.6,29.77,East,87,6.6,11.5,63,0.00,FEW,,0.00,0.0,WeatherDisplay:10.37,2013-09-29 18:18:00,
2013-09-29 20:23:00,58.0,45.9,29.77,East,90,8.5,9.0,64,0.00,FEW,,0.00,0.0,WeatherDisplay:10.37,2013-09-29 18:23:00,
2013-09-29 20:28:00,57.8,45.7,29.77,East,86,7.9,12.7,64,0.00,FEW,,0.00,0.0,WeatherDisplay:10.37,2013-09-29 18:28:00,
2013-09-29 20:33:00,57.7,45.6,29.77,East,94,8.3,15.0,64,0.00,FEW,,0.00,0.0,WeatherDisplay:10.37,2013-09-29 18:33:00,
2013-09-29 20:38:00,57.6,45.5,29.77,East,89,7.6,10.4,64,0.00,FEW,,0.00,0.0,WeatherDisplay:10.37,2013-09-29 18:38:00,
2013-09-29 20:43:00,57.4,45.3,29.77,ENE,75,9.7,12.7,64,0.00,FEW,,0.00,0.0,WeatherDisplay:10.37,2013-09-29 18:43:00,
2013-09-29 20:48:00,57.3,45.2,29.77,ENE,62,11.0,12.0,64,0.00,FEW,,0.00,0.0,WeatherDisplay:10.37,2013-09-29 18:48:00,
2013-09-29 20:53:00,57.3,45.2,29.77,East,92,6.8,11.5,64,0.00,FEW,,0.00,0.0,WeatherDisplay:10.37,2013-09-29 18:53:00,
2013-09-29 20:58:00,57.2,45.1,29.78,East,89,7.8,12.7,64,0.00,FEW,,0.00,0.0,WeatherDisplay:10.37,2013-09-29 18:58:00,
2013-09-29 20:59:00,56.9,44.8,29.78,East,97,7.0,12.7,64,0.00,FEW,,0.00,0.0,WeatherDisplay:10.37,2013-09-29 18:59:00,
2013-09-29 21:00:00,56.9,44.8,29.78,ENE,69,7.0,13.0,64,0.00,FEW,,0.00,0.0,WeatherDisplay:10.37,2013-09-29 19:00:00,
2013-09-29 21:01:00,56.9,44.8,29.78,ENE,76,7.0,11.5,64,0.00,FEW,,0.00,0.0,WeatherDisplay:10.37,2013-09-29 19:01:00,
2013-09-29 21:02:00,56.9,44.8,29.78,East,88,7.5,11.5,64,0.00,FEW,,0.00,0.0,WeatherDisplay:10.37,2013-09-29 19:02:00,
2013-09-29 21:03:00,57.1,45.0,29.78,East,82,8.3,12.7,64,0.00,FEW,,0.00,0.0,WeatherDisplay:10.37,2013-09-29 19:03:00,
2013-09-29 21:04:00,56.8,44.7,29.78,East,89,9.0,11.5,64,0.00,FEW,,0.00,0.0,WeatherDisplay:10.37,2013-09-29 19:04:00,
2013-09-29 21:05:00,56.8,44.7,29.78,ENE,69,9.3,12.7,64,0.00,FEW,,0.00,0.0,WeatherDisplay:10.37,2013-09-29 19:05:00,
2013-09-29 21:06:00,56.8,44.7,29.78,East,86,5.6,10.4,64,0.00,FEW,,0.00,0.0,WeatherDisplay:10.37,2013-09-29 19:06:00,
2013-09-29 21:07:00,56.8,44.7,29.78,East,92,7.1,11.0,64,0.00,FEW,,0.00,0.0,WeatherDisplay:10.37,2013-09-29 19:07:00,
2013-09-29 21:08:00,56.9,44.8,29.78,East,80,10.2,13.8,64,0.00,FEW,,0.00,0.0,WeatherDisplay:10.37,2013-09-29 19:08:00,
2013-09-29 21:13:00,56.8,44.7,29.78,East,87,9.0,12.7,64,0.00,FEW,,0.00,0.0,WeatherDisplay:10.37,2013-09-29 19:13:00,
2013-09-29 21:18:00,56.8,44.7,29.78,ENE,78,10.4,12.0,64,0.00,FEW,,0.00,0.0,WeatherDisplay:10.37,2013-09-29 19:18:00,
2013-09-29 21:23:00,56.7,44.6,29.78,ENE,65,6.4,10.4,64,0.00,FEW,,0.00,0.0,WeatherDisplay:10.37,2013-09-29 19:23:00,
2013-09-29 21:28:00,56.5,44.4,29.78,East,94,6.6,11.5,64,0.00,FEW,,0.00,0.0,WeatherDisplay:10.37,2013-09-29 19:28:00,
2013-09-29 21:33:00,56.4,44.3,29.78,ENE,64,10.0,16.1,64,0.00,FEW,,0.00,0.0,WeatherDisplay:10.37,2013-09-29 19:33:00,
2013-09-29 21:37:00,56.3,43.8,29.78,ENE,60,8.6,13.0,63,0.00,CLR,,0.00,0.0,WeatherDisplay:10.37,2013-09-29 19:37:00,
2013-09-29 21:38:00,56.3,43.8,29.78,East,80,8.8,13.8,63,0.00,CLR,,0.00,0.0,WeatherDisplay:10.37,2013-09-29 19:38:00,
2013-09-29 21:39:00,56.3,44.3,29.78,East,98,16.0,16.1,64,0.00,CLR,,0.00,0.0,WeatherDisplay:10.37,2013-09-29 19:39:00,
2013-09-29 21:40:00,56.2,43.7,29.78,East,90,7.6,11.5,63,0.00,CLR,,0.00,0.0,WeatherDisplay:10.37,2013-09-29 19:40:00,
2013-09-29 21:41:00,56.2,43.7,29.78,ENE,74,9.0,12.7,63,0.00,CLR,,0.00,0.0,WeatherDisplay:10.37,2013-09-29 19:41:00,
2013-09-29 21:42:00,56.2,43.7,29.78,East,82,9.8,15.0,63,0.00,CLR,,0.00,0.0,WeatherDisplay:10.37,2013-09-29 19:42:00,
2013-09-29 21:43:00,56.2,43.7,29.78,East,99,10.5,15.0,63,0.00,CLR,,0.00,0.0,WeatherDisplay:10.37,2013-09-29 19:43:00,
2013-09-29 21:44:00,56.3,43.8,29.78,East,82,10.3,13.0,63,0.00,CLR,,0.00,0.0,WeatherDisplay:10.37,2013-09-29 19:44:00,
2013-09-29 21:49:00,56.2,43.7,29.78,ENE,70,10.5,13.8,63,0.00,CLR,,0.00,0.0,WeatherDisplay:10.37,2013-09-29 19:49:00,
2013-09-29 21:54:00,56.2,43.7,29.79,East,84,13.3,15.0,63,0.00,CLR,,0.00,0.0,WeatherDisplay:10.37,2013-09-29 19:54:00,
2013-09-29 21:59:00,56.1,43.7,29.79,East,93,7.3,11.5,63,0.00,CLR,,0.00,0.0,WeatherDisplay:10.37,2013-09-29 19:59:00,
2013-09-29 22:04:00,56.0,43.6,29.79,East,80,9.9,15.0,63,0.00,CLR,,0.00,0.0,WeatherDisplay:10.37,2013-09-29 20:04:00,
2013-09-29 22:09:00,55.9,43.5,29.79,East,92,8.3,12.7,63,0.00,CLR,,0.00,0.0,WeatherDisplay:10.37,2013-09-29 20:09:00,
2013-09-29 22:14:00,55.8,43.4,29.79,East,88,8.6,15.0,63,0.00,CLR,,0.00,0.0,WeatherDisplay:10.37,2013-09-29 20:14:00,
2013-09-29 22:19:00,55.7,43.3,29.79,East,88,8.0,15.0,63,0.00,CLR,,0.00,0.0,WeatherDisplay:10.37,2013-09-29 20:19:00,
2013-09-29 22:24:00,55.7,42.9,29.79,East,82,7.6,11.5,62,0.00,CLR,,0.00,0.0,WeatherDisplay:10.37,2013-09-29 20:24:00,
2013-09-29 22:29:00,55.6,43.2,29.79,East,97,6.2,11.5,63,0.00,CLR,,0.00,0.0,WeatherDisplay:10.37,2013-09-29 20:29:00,
2013-09-29 22:34:00,55.4,43.0,29.79,ENE,76,8.1,16.1,63,0.00,CLR,,0.00,0.0,WeatherDisplay:10.37,2013-09-29 20:34:00,
2013-09-29 22:39:00,55.3,42.9,29.79,East,84,7.5,12.0,63,0.00,CLR,,0.00,0.0,WeatherDisplay:10.37,2013-09-29 20:39:00,
2013-09-29 22:44:00,55.2,42.8,29.79,East,85,8.3,15.0,63,0.00,CLR,,0.00,0.0,WeatherDisplay:10.37,2013-09-29 20:44:00,
2013-09-29 22:49:00,55.1,42.7,29.79,East,94,8.4,11.5,63,0.00,CLR,,0.00,0.0,WeatherDisplay:10.37,2013-09-29 20:49:00,
2013-09-29 22:54:00,54.9,42.5,29.79,East,86,8.4,11.5,63,0.00,CLR,,0.00,0.0,WeatherDisplay:10.37,2013-09-29 20:54:00,
2013-09-29 22:59:00,54.8,42.4,29.79,East,90,7.7,11.5,63,0.00,CLR,,0.00,0.0,WeatherDisplay:10.37,2013-09-29 20:59:00,
2013-09-29 23:04:00,54.7,42.7,29.79,East,92,6.8,13.8,64,0.00,CLR,,0.00,0.0,WeatherDisplay:10.37,2013-09-29 21:04:00,
2013-09-29 23:09:00,54.5,42.5,29.79,East,94,5.4,11.5,64,0.00,CLR,,0.00,0.0,WeatherDisplay:10.37,2013-09-29 21:09:00,
2013-09-29 23:14:00,54.4,42.5,29.80,ENE,71,8.8,17.3,64,0.00,CLR,,0.00,0.0,WeatherDisplay:10.37,2013-09-29 21:14:00,
2013-09-29 23:19:00,54.2,42.3,29.79,ENE,59,8.2,11.5,64,0.00,CLR,,0.00,0.0,WeatherDisplay:10.37,2013-09-29 21:19:00,
2013-09-29 23:24:00,54.1,42.6,29.79,East,86,7.9,11.5,65,0.00,CLR,,0.00,0.0,WeatherDisplay:10.37,2013-09-29 21:24:00,
2013-09-29 23:29:00,53.9,42.4,29.80,East,83,7.3,11.5,65,0.00,CLR,,0.00,0.0,WeatherDisplay:10.37,2013-09-29 21:29:00,
2013-09-29 23:34:00,53.7,42.6,29.79,East,90,7.0,9.2,66,0.00,CLR,,0.00,0.0,WeatherDisplay:10.37,2013-09-29 21:34:00,
2013-09-29 23:39:00,53.5,42.4,29.80,East,90,7.5,10.4,66,0.00,CLR,,0.00,0.0,WeatherDisplay:10.37,2013-09-29 21:39:00,
2013-09-29 23:44:00,53.4,42.3,29.80,East,92,5.3,7.0,66,0.00,CLR,,0.00,0.0,WeatherDisplay:10.37,2013-09-29 21:44:00,
2013-09-29 23:49:00,53.3,42.6,29.80,ENE,73,6.8,10.4,67,0.00,CLR,,0.00,0.0,WeatherDisplay:10.37,2013-09-29 21:49:00,
2013-09-29 23:54:00,53.2,42.5,29.80,East,85,7.2,11.5,67,0.00,CLR,,0.00,0.0,WeatherDisplay:10.37,2013-09-29 21:54:00,
2013-09-29 23:59:00,53.1,42.4,29.80,East,85,6.3,11.5,67,0.00,CLR,,0.00,0.0,WeatherDisplay:10.37,2013-09-29 21:59:00,